Back to catalog

SHIYAN 29

AliveScienceGEO
NORAD 65486·PAYLOAD·🇨🇳 China

Launched Sep 5, 2025 from Xichang Satellite Launch Center

Loading…

TLE

FreshSource: Space-Track

Epoch: Sep 13, 2026, 20:21 UTC

1 65486U 25196A   26256.84832145 -.00000277  00000-0  00000-0 0  9995
2 65486  28.9157  17.4204 0015373 176.6932 198.6214  1.00288147  3773

Track SHIYAN 29 in real time with AllMySat

Download on the App Store